Total_Precipitation_Accumulation
0.02 0.03 0.04 0.04 0.05 0.07 0.10 0.18 0.27 0.34 0.27 0.37 0.49 0.59 0.76 0.93 1.18 1.28 1.41 1.54 1.79 2.10 2.49 3.24 3.91 4.39 4.99 5.74 6.30 6.22 5.62 5.23 4.82 4.34 3.89 3.97 3.89 3.67 3.43 3.25 3.12 3.16 3.09 2.94
0.03 0.06 0.05 0.04 0.04 0.06 0.10 0.16 0.24 0.27 0.23 0.24 0.42 0.70 0.87 0.95 1.15 1.15 1.23 1.32 1.51 1.88 2.53 3.32 3.90 4.01 3.98 4.25 4.48 4.00 3.83 3.88 3.60 3.45 3.48 3.48 3.39 3.11 2.95 2.98 3.28 2.97 2.96 2.85
0.04 0.07 0.04 0.04 0.05 0.07 0.11 0.15 0.18 0.26 0.25 0.32 0.51 0.96 1.16 1.04 1.08 1.03 1.07 1.31 1.76 2.18 2.61 3.13 3.28 3.25 3.08 3.02 3.02 2.82 2.81 3.16 3.18 3.28 3.37 3.40 3.42 3.26 3.11 2.96 3.15 2.85 2.64 2.59
0.03 0.05 0.05 0.06 0.06 0.07 0.11 0.09 0.08 0.12 0.22 0.46 0.64 1.17 1.41 1.29 1.23 1.00 1.12 1.56 2.01 2.33 2.58 2.62 2.18 1.99 2.06 2.13 2.26 2.54 2.67 2.87 2.84 3.01 3.00 2.95 2.76 2.67 2.62 2.60 2.77 2.86 2.57 2.45
0.04 0.05 0.05 0.06 0.06 0.05 0.07 0.07 0.06 0.11 0.22 0.51 0.81 1.27 1.55 1.43 1.21 1.01 1.01 1.08 1.48 1.67 1.63 1.56 1.43 1.42 1.60 1.85 2.10 2.45 2.60 2.69 2.65 2.66 2.76 2.95 2.89 2.92 2.82 2.77 3.06 3.08 3.10 2.86
0.05 0.06 0.05 0.04 0.04 0.05 0.06 0.09 0.17 0.28 0.46 0.97 1.06 1.18 1.49 1.37 1.16 1.03 0.88 0.80 1.05 1.12 0.99 1.09 1.20 1.42 1.67 1.82 1.91 2.13 2.32 2.58 2.62 2.61 2.67 2.72 2.81 3.04 3.04 3.03 2.89 2.75 2.88 2.85
0.10 0.10 0.07 0.05 0.05 0.06 0.06 0.11 0.37 0.74 1.04 1.21 0.91 1.04 1.37 1.04 0.84 0.74 0.62 0.60 0.68 0.75 0.84 1.05 1.20 1.43 1.54 1.60 1.60 1.75 1.85 2.08 2.33 2.42 2.45 2.54 2.70 2.86 2.85 2.92 2.88 2.78 2.57 2.44
0.16 0.15 0.10 0.05 0.06 0.06 0.06 0.08 0.19 0.34 0.49 0.70 0.86 1.29 1.39 0.98 0.64 0.51 0.48 0.50 0.54 0.66 0.78 0.89 1.09 1.17 1.23 1.39 1.57 1.75 1.73 1.74 1.81 1.94 2.17 2.33 2.35 2.46 2.50 2.85 2.75 2.72 2.57 2.41
0.06 0.07 0.06 0.05 0.06 0.05 0.06 0.05 0.07 0.11 0.19 0.46 0.95 1.24 1.18 0.82 0.62 0.58 0.58 0.63 0.68 0.73 0.87 0.87 0.89 1.10 1.19 1.09 1.18 1.39 1.52 1.61 1.70 1.77 1.98 2.00 1.98 2.09 2.32 2.41 2.27 2.13 2.22 2.32
0.03 0.05 0.04 0.04 0.05 0.05 0.06 0.06 0.07 0.10 0.20 0.37 0.79 1.33 1.54 1.20 0.88 0.71 0.77 0.74 0.72 0.74 0.83 0.91 0.92 1.00 1.07 1.06 1.19 1.31 1.43 1.56 1.65 1.66 1.75 1.62 1.73 1.83 2.05 2.16 2.14 2.04 1.98 2.15
0.03 0.04 0.05 0.05 0.07 0.07 0.07 0.07 0.09 0.12 0.15 0.25 0.59 0.94 0.95 1.05 0.91 0.70 0.74 0.74 0.70 0.68 0.72 0.85 0.87 0.96 0.99 0.97 1.07 1.25 1.47 1.57 1.49 1.50 1.52 1.61 1.72 1.89 1.97 1.96 2.00 2.03 2.04 2.17
0.03 0.04 0.03 0.06 0.08 0.09 0.09 0.10 0.11 0.14 0.17 0.18 0.31 0.52 0.56 0.64 0.77 0.99 0.96 0.77 0.76 0.81 0.79 0.88 0.89 0.91 0.90 0.91 0.98 1.11 1.31 1.48 1.53 1.52 1.61 1.75 1.83 1.93 1.99 1.90 1.99 2.20 2.22 2.26
0.03 0.04 0.05 0.14 0.19 0.17 0.13 0.13 0.12 0.12 0.13 0.15 0.29 0.50 0.52 0.53 0.58 0.74 0.86 0.92 0.82 0.74 0.78 0.83 0.97 0.91 0.86 0.91 0.97 1.12 1.38 1.58 1.77 1.86 1.85 1.88 1.86 1.93 2.05 2.10 2.13 2.25 2.34 2.40
0.03 0.04 0.05 0.13 0.23 0.25 0.23 0.19 0.15 0.12 0.11 0.13 0.19 0.40 0.52 0.65 0.72 0.75 0.85 0.99 0.87 0.72 0.73 0.85 0.99 1.07 1.15 1.17 1.18 1.30 1.47 1.56 1.73 1.76 1.79 1.91 1.99 2.11 2.24 2.31 2.37 2.40 2.40 2.41
0.04 0.04 0.04 0.04 0.08 0.14 0.22 0.21 0.15 0.11 0.09 0.11 0.15 0.28 0.48 0.70 0.83 0.92 0.96 1.01 0.92 0.87 0.90 0.94 1.07 1.22 1.32 1.41 1.40 1.38 1.46 1.51 1.69 2.06 2.28 2.43 2.44 2.46 2.56 2.62 2.60 2.63 2.58 2.51
0.07 0.06 0.06 0.05 0.07 0.09 0.13 0.18 0.15 0.11 0.11 0.13 0.17 0.32 0.47 0.73 0.81 0.90 0.90 0.94 0.93 1.01 1.10 1.21 1.28 1.37 1.42 1.50 1.60 1.65 1.67 1.77 1.97 2.42 2.78 2.90 2.91 2.91 2.93 2.96 2.94 2.94 2.89 3.03
0.14 0.13 0.11 0.08 0.10 0.12 0.17 0.16 0.16 0.15 0.14 0.20 0.27 0.39 0.52 0.70 0.91 1.01 0.91 0.81 0.87 0.99 1.09 1.18 1.32 1.46 1.53 1.65 1.73 1.85 1.95 2.04 2.17 2.42 2.64 2.75 2.84 2.92 3.08 3.09 3.07 3.07 3.08 3.12
0.22 0.23 0.20 0.15 0.17 0.24 0.23 0.24 0.25 0.25 0.26 0.30 0.43 0.58 0.66 0.74 0.86 0.91 0.82 0.83 0.90 0.99 1.11 1.21 1.29 1.52 1.69 1.86 2.09 2.36 2.52 2.62 2.58 2.64 2.80 2.90 2.87 2.90 2.96 2.95 2.86 2.87 3.01 3.05
0.27 0.32 0.30 0.28 0.28 0.28 0.30 0.36 0.36 0.38 0.51 0.57 0.70 0.85 0.95 0.94 0.94 1.07 0.99 0.96 1.03 1.16 1.32 1.51 1.71 1.80 1.90 2.01 2.17 2.42 2.71 2.89 2.89 2.76 2.85 2.98 3.08 3.17 3.07 2.98 2.96 2.99 3.06 2.96
0.32 0.38 0.45 0.41 0.45 0.49 0.46 0.49 0.47 0.54 0.95 0.88 0.95 1.08 1.19 1.28 1.58 1.62 1.34 1.37 1.32 1.30 1.44 1.62 1.80 1.88 1.90 2.05 2.16 2.29 2.49 2.63 2.70 2.74 2.86 3.00 3.10 3.26 3.36 3.30 3.32 3.25 3.17 3.11
0.52 0.56 0.51 0.52 0.59 0.62 0.55 0.52 0.59 1.08 1.51 1.27 1.20 1.29 1.41 1.58 1.65 1.61 1.47 1.53 1.53 1.38 1.39 1.44 1.51 1.67 1.75 1.83 1.97 2.17 2.28 2.27 2.36 2.47 2.52 2.70 2.93 3.16 3.32 3.41 3.42 3.42 3.33 3.24
0.79 0.86 0.80 0.77 0.98 1.10 0.74 0.66 1.02 1.41 1.38 1.50 1.40 1.42 1.53 1.59 1.66 1.70 1.70 1.67 1.56 1.45 1.35 1.36 1.46 1.58 1.67 1.84 2.14 2.37 2.36 2.31 2.34 2.45 2.58 2.72 2.95 3.05 3.09 3.21 3.26 3.41 3.38 3.26
1.06 1.14 1.18 1.20 1.36 1.22 0.90 0.97 1.09 1.14 1.34 1.43 1.48 1.53 1.59 1.57 1.56 1.49 1.46 1.51 1.56 1.44 1.41 1.37 1.41 1.56 1.79 2.04 2.32 2.57 2.56 2.59 2.63 2.68 2.78 2.86 2.95 3.05 3.13 3.20 3.21 3.20 3.18 3.03
1.16 0.99 1.22 1.51 1.68 1.45 1.23 1.16 1.21 1.28 1.42 1.55 1.67 1.80 1.77 1.62 1.47 1.48 1.49 1.48 1.55 1.52 1.46 1.43 1.46 1.58 1.79 1.93 2.06 2.31 2.46 2.51 2.69 2.71 2.64 2.64 2.64 2.70 2.80 2.91 2.95 2.90 2.81 2.76
1.28 1.29 1.49 1.91 2.10 1.92 1.69 1.48 1.45 1.51 1.74 1.91 1.90 1.87 1.79 1.76 1.71 1.76 1.73 1.61 1.54 1.52 1.56 1.55 1.61 1.71 1.75 1.79 1.85 1.98 2.18 2.34 2.55 2.68 2.70 2.73 2.73 2.76 2.82 2.88 2.96 2.85 2.70 2.67
1.24 1.59 1.93 2.26 2.16 2.23 2.08 1.70 1.66 1.71 1.87 1.99 1.93 1.93 1.97 1.96 1.87 1.73 1.67 1.61 1.58 1.59 1.64 1.70 1.77 1.82 1.82 1.81 1.90 2.01 2.18 2.43 2.71 2.72 2.64 2.67 2.75 2.85 2.95 2.99 3.03 3.08 2.80 2.71